TURKSAT 5A (47306 NORAD) Tracking and Keplerian Element Data
This shows tracking and keplerian element data for the satellite.
Feedback or suggestion? Click here.
Element | Value |
Catalog | 47306 |
Name | TURKSAT 5A |
Epoch Orbit | 7 |
Epoch Day | 13.53912193 |
Epoch Year | 2021 |
RAAN | 331.8797 |
Inclination | 17.4768 |
Eccentricity | 0.7982002 |
Argument of Perigee | 182.1165 |
Mean Anonmoly | 169.1859 |
Mean Motion | 1.37548017 |
Decay Rate | 8.321E-05 |
L1 | 1 47306U 21001A 21013.53912193 .00008321 00000-0 14510+0 0 9998 |
L2 | 2 47306 17.4768 331.8797 7982002 182.1165 169.1859 1.37548017 77 |
Live tracking and technical data element details for TURKSAT 5A (NORAD 47306). TURKSAT 5A can be tracked NOW for your location showing map with azimuth and elevation plus other details from your city location.
Track the satellite on the map from your city or location and see movement details for azimuth, elevation, latitude, longitude, range, height, and movement on the map or in text.
IsCatalogInMostPopularTable: catalog: 47306, numindb: 1
Update: records affected: 1
GetName: 47306 TURKSAT 5A
Hit Count: updated at: Sun, 17 Jan 2021 09:52:54 GMT